Regional Weather Roundup
Issued by NWS

Home | Current Version | Previous Version | Text Only | Print | Product List | Glossary On
Versions: 1 2 3 4 5 6 7 8 9 10 11 12 13 14 15 16 17 18 19 20 21 22 23 24 25 26 27 28 29 30 31 32 33 34 35 36 37 38 39 40 41 42 43 44 45 46 47 48 49 50
000
ASUS43 KMKX 242111
RWRWI

WISCONSIN REGIONAL WEATHER ROUNDUP
NATIONAL WEATHER SERVICE MILWAUKEE/SULLIVAN WI
400 PM CDT THU MAY 24 2018

NOTE: "FAIR" INDICATES FEW OR NO CLOUDS BELOW 12,000 FEET WITH NO
SIGNIFICANT WEATHER AND/OR OBSTRUCTIONS TO VISIBILITY.

WIZ001-002-006>008-014>016-023>028-242200-
NORTHWEST WISCONSIN

CITY           SKY/WX    TMP DP  RH WIND       PRES   REMARKS
SUPERIOR ARPT  CLOUDY    56  53  90 NE7       29.94F
ASHLAND        FAIR      83  67  58 S7        29.94F HX  85
HAYWARD        TSTM      68  66  93 VRB3G25   29.96  VSB 3/4
SIREN          FAIR     N/A N/A N/A MISG        N/A
CUMBERLAND     PTSUNNY   86  55  35 S24       29.93F HX  84
RICE LAKE      FAIR      89  59  35 S17G26    29.95F HX  88
CHETEK         FAIR      88  65  45 S14G22    29.94F HX  90
LADYSMITH      PTSUNNY   86  63  46 S14G23    29.97F HX  87
EAU CLAIRE     FAIR      88  65  46 S20       29.95F HX  90
MENOMONIE      FAIR      88  61  40 S15G22    29.94F HX  88
NEW RICHMOND   FAIR      88  53  30 S21G29    29.92F HX  86
OSCEOLA        FAIR      91  55  29 S17G28    29.94F HX  89
$$

WIZ003>005-009-010-017-018-242200-
NORTH CENTRAL WISCONSIN

CITY           SKY/WX    TMP DP  RH WIND       PRES   REMARKS
MANITOWISH WTR PTSUNNY   81  66  60 S6        30.00F HX  83
ARBOR VITAE    PTSUNNY   82  66  56 S8        30.00F HX  84
WOODRUFF       PTSUNNY   82  66  56 S8        30.00F HX  84
RHINELANDER    FAIR      84  64  50 S7G17     30.03F HX  85
EAGLE RIVER    FAIR      80  60  49 S6        30.01F HX  81
LAND O LAKES   FAIR      80  63  57 S6        30.03F HX  81
PHILLIPS       FAIR      83  66  54 S9        29.98F HX  85
TOMAHAWK       FAIR      82  64  55 SE5       30.02F HX  83
MEDFORD        PTSUNNY   83  63  51 S14G22    30.01F HX  84
MERRILL        NOT AVBL
$$

WIZ029-030-035-036-043>047-242200-
CENTRAL WISCONSIN

CITY           SKY/WX    TMP DP  RH WIND       PRES   REMARKS
WAUSAU         FAIR      87  61  41 S13       30.00F HX  87
MOSINEE        PTSUNNY   84  63  48 S9G18     30.03F HX  85
MARSHFIELD     PTSUNNY   86  63  45 S13       30.01F HX  87
STEVENS POINT  FAIR      84  60  43 S13       30.03F HX  84
WAUPACA        FAIR      88  59  38 S9        30.04F HX  87
WAUTOMA        FAIR      86  62  44 S12       30.04F HX  86
WISC RAPIDS    FAIR      88  60  38 SW12      30.03F HX  87
CAMP DOUGLAS   PTSUNNY   86  64  48 S12G20    30.02F HX  87
$$

WIZ011>013-019>022-031-037>040-048>050-242200-
NORTHEAST WISCONSIN

CITY           SKY/WX    TMP DP  RH WIND       PRES   REMARKS
ANTIGO         FAIR      82  61  49 SW13      30.04F HX  83
SHAWANO        FAIR      86  58  39 S8        30.02F HX  85
OCONTO         FAIR      84  58  40 S12G20    30.02F HX  84
STURGEON BAY   FAIR      77  53  43 S15       30.06F
GREEN BAY      FAIR      84  61  45 SW12G18   30.05F HX  84
MANITOWOC      FAIR      71  54  54 S17G23    30.08F
APPLETON       PTSUNNY   82  55  39 SW12      30.05F HX  82
CLINTONVILLE   FAIR      84  58  40 S13       30.03F HX  83
OSHKOSH        FAIR      83  61  47 S12       30.05F HX  83
$$

WIZ032>034-041-042-053>061-242200-
SOUTHWEST WISCONSIN

CITY           SKY/WX    TMP DP  RH WIND       PRES   REMARKS
LA CROSSE      FAIR      89  65  44 S17G24    29.98F HX  91
SPARTA         FAIR      86  63  46 S12G17    30.02F HX  87
VIROQUA        PTSUNNY   85  63  46 S8        30.04F HX  86
BOSCOBEL       FAIR      88  64  44 SW9       30.03F HX  89
PRAIRIE DU CHI FAIR      86  60  41 S10       30.01F HX  86
PLATTEVILLE    FAIR      84  66  54 SW7       30.06F HX  86
$$

WIZ056-057-062-063-064-067-068-242200-
SOUTH CENTRAL WISCONSIN

CITY           SKY/WX    TMP DP  RH WIND       PRES   REMARKS
REEDSBURG      FAIR      85  62  46 S7G17     30.04F HX  85
BARABOO/DELLS  FAIR      85  57  38 S12       30.05F HX  84
LONE ROCK      FAIR      86  64  47 SW12      30.03F HX  87
MINERAL POINT  FAIR      86  61  42 S8        30.07F HX  86
MADISON        PTSUNNY   84  60  44 S10G18    30.05F HX  84
MIDDLETON      FAIR      87  58  37 S7        30.07S HX  85
WATERTOWN      FAIR      85  61  45 S8        30.06F HX  85
MONROE         FAIR      84  57  39 S9        30.07F HX  83
JANESVILLE     MOSUNNY   86  55  35 S9        30.07F HX  84
$$

WIZ051-052-058>065-066-070>072-242200-
SOUTHEAST WISCONSIN

CITY           SKY/WX    TMP DP  RH WIND       PRES   REMARKS
MILWAUKEE      PTSUNNY   78  59  51 SE14      30.09F
WAUKESHA       SUNNY     82  55  39 S9        30.10F HX  82
MILWAUKEE/TIMM SUNNY     84  52  32 SW12      30.08F HX  82
RACINE         FAIR      76  54  46 S15       30.12F
BURLINGTON     FAIR      85  58  40 S7        30.09S HX  84
KENOSHA        FAIR      82  57  42 SE10      30.10F HX  82
FOND DU LAC    FAIR      84  59  42 SW12      30.06F HX  84
SHEBOYGAN      FAIR      76  56  49 S14G21    30.08F
WEST BEND      FAIR      81  57  44 SE10      30.08S HX  81
JUNEAU         FAIR      83  60  45 S13G23    30.08F HX  83
$$

LSZ147-162-242200-
LAKE SUPERIOR

STATION/POSITION TIME  TEMP    WIND        PRES    WAVE
                       AIR SEA DIR/SP/G            HT/PER
                 (UTC) (F)     (DEG/KT/KT) (MB)    (FT/S)
W MID LAKE BUOY  2050   46 37  130/  6/  6 1014.7F   0
DEVILS ISLAND    2100   51     100/  6/  7 1014.1F
SAXON HARBOR     2030   60     310/  3/  4 1013.9F
$$

LMZ867-665-643>646-242200-
LAKE MICHIGAN

STATION/POSITION TIME  TEMP    WIND        PRES    WAVE
                       AIR SEA DIR/SP/G            HT/PER
                 (UTC) (F)     (DEG/KT/KT) (MB)    (FT/S)
N MID LAKE BUOY  2050   43 38  200/  6/  8 1018.5F   1/ 3
NORTHPORT PIER   2040   65     150/  5/  7 1017.9F
KEWAUNEE LAKESHO 2048   52     170/ 11/ 12 1018.0F
SHEBOYGAN LAKESH 2100   57     170/ 19/ 20 1018.5F
PORT WASHINGTON  2030   60      70/  2/  4 1020.3F
ATWATER BUOY     2007   57 51  170/ 10/ 12 1019.3    1/ 3
MILWAUKEE LAKESH 2050   58     140/ 17/ 18   N/A
S MID LAKE BUOY  2050   60 40  160/  8/  8 1020.3F   0
KENOSHA   LAKESH 2100   63                 1019.0
$$

TC  - TEMPERATURE IN CELSIUS
VSB - VISIBILITY IN STATUTE MILES
WCI - WIND CHILL INDEX
HX  - HEAT INDEX





USA.gov is the U.S. government's official web portal to all federal, state and local government web resources and services.